Strona główna
METAR-TAF:

METAR-TAF

Lotnisko :

Sussex Airport

Sussex, New Jersey, Stany Zjednoczone

Szerokość geograficzna: 41-12-01N, Długość geograficzna: 074-37-23W, wysokość: 128 m

Aktualna obserwacja pogody

Raport powstał 12 minut temu, godzina 18:53 UTC
Wiatr 7 kt od południowy zachód
Temperatura 16°C
Wilgotność 94%
Ciśnienie 1014 hPa
Widzialność: 16.1 km
Zachmurzenie całkowite na wysokości 900 ft

METAR: KFWN 151853Z AUTO 22007KT 10SM OVC009 16/15 A2995 RMK AO2 SLP141 T01610150

czas: 15:05 (19:05 UTC)


TAF: brakujący

Obserwacja i prognoza pogody dla ponad 4000 lotnisk (raport METAR i TAF).

Dostępne stacje oznaczono żółtymi i czerwonymi punktami na mapie.

Najedź kursorem aby zobaczyć nazwę stacji.

Kliknij aby zobaczyć obserwacje i prognozy pogody.

Aby zmienić mapę: kliknij na zielony przycisk z czarnym krzyżykiem, aby powiększyć; na zielony przycisk z myślnikiem, aby pomniejszyć; na zielone strzałki, aby przejść do map sąsiednich.


METAR-TAF: